Regional Weather Roundup
Issued by NWS Grand Forks, ND

Home | Current Version | Previous Version | Text Only | Print | Product List | Glossary On
Versions: 1 2 3 4 5 6 7 8 9 10 11 12 13 14 15 16 17 18 19 20 21 22 23 24 25 26 27 28 29 30 31 32 33 34 35 36 37 38 39 40 41 42 43 44 45 46 47 48 49 50
000
ASUS43 KFGF 170031
RWRFGF
PRAIRIE TO PINES  WEATHER ROUNDUP
NATIONAL WEATHER SERVICE EASTERN NORTH DAKOTA/GRAND FORKS ND
700 PM CDT WED APR 16 2014

 **SATELLITE DATA USED TO AUGMENT SKY COVER AT AUTOMATED STATIONS**
 *****  WEATHER ACROSS EASTERN NORTH DAKOTA  *****

CITY           SKY/WX    TMP DP  RH WIND       PRES   REMARKS
GRAND FORKS    SUNNY     38   9  30 NE20      30.18R
6HR MIN TEMP:  38; 6HR MAX TEMP:  42;

GRAND FRKS AFB SUNNY     37   5  26 NE16      30.23R
GRAND FRKS NWS   N/A     36 N/A N/A N10         N/A
DEVILS LAKE    SUNNY     34  10  37 NE16      30.23R WCI  23
6HR MIN TEMP:  36; 6HR MAX TEMP:  37;

FARGO          MOSUNNY   38  23  55 NE10      30.15R
WAHPETON ARPT  MOCLDY    34  21  60 NE15      30.13R WCI  24
$$

 ***** WEATHER ACROSS CENTRAL AND WESTERN NORTH DAKOTA  *****

CITY           SKY/WX    TMP DP  RH WIND       PRES   REMARKS
BISMARCK       CLOUDY    37  15  40 NE10      30.19R
6HR MIN TEMP:  29; 6HR MAX TEMP:  37;

MINOT          CLOUDY    33  17  51 NE13      30.23R WCI  24
6HR MIN TEMP:  26; 6HR MAX TEMP:  34; 6HR PCP: TRACE;

JAMESTOWN      SUNNY     38  16  40 NE17      30.15R
6HR MIN TEMP:  31; 6HR MAX TEMP:  40;

MINOT AFB      CLOUDY    33  18  55 E9        30.23R
GARRISON         N/A     33  17  51 NE8       30.20R
WILLISTON        N/A    N/A N/A N/A MISG      30.23R
DICKINSON      CLOUDY    29  20  69 E13       30.14R WCI  19
6HR MIN TEMP:  27; 6HR MAX TEMP:  30;

HETTINGER      CLOUDY    31  22  69 NE10      30.14R WCI  22
6HR MIN TEMP:  29; 6HR MAX TEMP:  33;

$$

 *****  OTHER AIRPORT OBSERVATIONS IN OUR AREA  *****

CITY           SKY/WX    TMP DP  RH WIND       PRES   REMARKS
WALHALLA         N/A     32  14  47 N18       30.30R WCI  20
GRAFTON AIRPOR FAIR      36  10  35 NE13G18   30.25S
VALLEY CITY AR NOT AVBL
CANDO          CLOUDY    32  14  47 NE15      30.26R WCI  22
CAVALIER APRT  FAIR      32  12  43 N15       30.28S WCI  22
GWINNER        CLEAR     36  23  60 NE17      30.15R
SHEYENNE NWR     N/A     37  20  50 NE14      29.95S
ROLLA          FAIR      28   9  43 NE14      30.27S WCI  17
 ***** THE ABOVE OBSERVATIONS ARE NON NWS ARE NOT QUALITY
       CONTROLLED AND MAY MIS-REPORT RAIN FOR SNOW...
$$

  *****  WEATHER ACROSS NORTHERN MINNESOTA  *****

CITY           SKY/WX    TMP DP  RH WIND       PRES   REMARKS
FLAG ISLAND    SUNNY     32   7  34 N12       30.25S WCI  23
WARROAD        SUNNY     34  12  40 N10       30.26R
ROSEAU         SUNNY     36  10  35 NE14      30.25R
HALLOCK        CLOUDY    37   3  23 NE12      30.26R
THF RVR FALLS  SUNNY     36  10  35 N14G21    30.21R
6HR MIN TEMP:  36; 6HR MAX TEMP:  39;

BAUDETTE       SUNNY     36   5  27 NE14      30.21R
6HR MIN TEMP:  34; 6HR MAX TEMP:  38;

WASKISH        SUNNY     36   9  32 NE10      30.19R
CROOKSTON      SUNNY     37  16  41 NE17      30.21R
$$
  *****  WEATHER ACROSS CENTRAL AND WEST MINNESOTA  *****

CITY           SKY/WX    TMP DP  RH WIND       PRES   REMARKS
FOSSTON        SUNNY     37  10  32 NE14      30.16R
BEMIDJI        MOSUNNY   35  13  40 E10       30.14S
PARK RAPIDS    PTSUNNY   30  21  69 NE16G22   30.12R WCI  19
6HR MIN TEMP:  28; 6HR MAX TEMP:  31;

ELBOW LAKE     CLOUDY    31  23  72 NE15G25   30.08R WCI  20
6HR MIN TEMP:  28; 6HR MAX TEMP:  31;

WADENA         PTSUNNY   28  21  74 NE16G24   30.09S WCI  17
DETROIT LAKES  MOSUNNY   34  21  60 NE14G20   30.13R WCI  24
MOORHEAD       SUNNY     37  23  56 NE12G18   30.16R
FERGUS FALLS   CLOUDY    32  19  59 NE10G21   30.10R WCI  24
MORRIS MN      CLOUDY    30  25  80 NE23      30.06R WCI  17
STAPLES        CLOUDY    28  21  74 NE13G21   30.09R WCI  18
$$
  *****  WEATHER ELSEWHERE ACROSS MINNESOTA  *****

CITY           SKY/WX    TMP DP  RH WIND       PRES   REMARKS
DULUTH         LGT SNOW  26  22  84 E21G31    30.12R VSB 3/4 WCI  12
6HR MIN TEMP:  26; 6HR MAX TEMP:  27; 6HR PCP:  0.23;

INTRNTL FALLS  PTCLDY    36   2  23 E10       30.20R
6HR MIN TEMP:  32; 6HR MAX TEMP:  37;

ELY            LGT SNOW  25  21  86 E6        30.21S WCI  18
CLOQUET        LGT SNOW  27  25  93 NE18G25   30.11R VSB 1   WCI  13
WHEATON        CLOUDY    34  27  75 NE14      30.13R WCI  24
BRAINERD       LGT SNOW  32  23  69 NE22G29   30.09R WCI  19
6HR MIN TEMP:  32; 6HR MAX TEMP:  32; 6HR PCP: TRACE;

HIBBING        LGT SNOW  27  20  75 NE13G20   30.17S WCI  16
6HR MIN TEMP:  27; 6HR MAX TEMP:  30; 6HR PCP: TRACE;

ALEXANDRIA     CLOUDY    29  23  78 NE20G26   30.04R WCI  16
6HR MIN TEMP:  27; 6HR MAX TEMP:  30; 6HR PCP:  0.02;

SAINT CLOUD    LGT SNOW  28  25  86 NE16G22   29.99R VSB 1   WCI  17
6HR MIN TEMP:  29; 6HR MAX TEMP:  30; 6HR PCP:  0.59;

MINNEAPOLIS    LGT RAIN  33  33 100 NE20      29.90S FOG     WCI  21
6HR MIN TEMP:  32; 6HR MAX TEMP:  37; 6HR PCP:  0.14;

$$

  *****  WEATHER ACROSS SOUTH DAKOTA  *****

CITY           SKY/WX    TMP DP  RH WIND       PRES   REMARKS
SIOUX FALLS    CLOUDY    30  27  88 N26G35    29.94R WCI  16
6HR MIN TEMP:  30; 6HR MAX TEMP:  48; 6HR PCP:  0.17;

BROOKINGS      NOT AVBL
WATERTOWN      CLOUDY    28  24  85 N23       30.04R WCI  14
6HR MIN TEMP:  27; 6HR MAX TEMP:  29; 6HR PCP: TRACE;

HURON          CLOUDY    33  26  75 N18       30.08R WCI  22
6HR MIN TEMP:  31; 6HR MAX TEMP:  33; 6HR PCP: TRACE;

SISSETON         N/A     32  24  72 NE16      30.10R WCI  21
ABERDEEN       CLOUDY    33  23  66 N20       30.13R WCI  21
6HR MIN TEMP:  30; 6HR MAX TEMP:  33;

MITCHELL       CLOUDY    33  26  75 N21G31    30.07R WCI  21
PIERRE         CLOUDY    36  25  64 NE16      30.12R
6HR MIN TEMP:  33; 6HR MAX TEMP:  38;

MOBRIDGE       PTSUNNY   38  22  52 NE16      30.12R
RAPID CITY     MOSUNNY   41  26  55 E16       30.06R
6HR MIN TEMP:  40; 6HR MAX TEMP:  47;

$$

  *****  SOME WEATHER IN NEARBY STATES *****

CITY           SKY/WX    TMP DP  RH WIND       PRES   REMARKS
GLASGOW MT     PTSUNNY   35  20  54 E12       30.14R
6HR MIN TEMP:  33; 6HR MAX TEMP:  38;

GREAT FALLS MT MOSUNNY   41  36  82 E8        29.97S
6HR MIN TEMP:  37; 6HR MAX TEMP:  46; 6HR PCP:  0.03;

CHEYENNE WY    MOSUNNY   43  23  45 N18G26    29.96R
6HR MIN TEMP:  33; 6HR MAX TEMP:  45; 6HR PCP:  0.02;

SCOTTSBLUFF NE MOSUNNY   52  26  36 NE14      29.98R
6HR MIN TEMP:  50; 6HR MAX TEMP:  55;

OMAHA NE       MOSUNNY   43  32  65 NW28G35   29.88R
6HR MIN TEMP:  43; 6HR MAX TEMP:  69;

DES MOINES IA  MOCLDY    63  32  31 S21G37    29.76F
6HR MIN TEMP:  62; 6HR MAX TEMP:  66;

DAVENPORT IA   CLOUDY    53  26  35 S25G36    29.98R
6HR MIN TEMP:  53; 6HR MAX TEMP:  58;

CHICAGO IL     CLOUDY    50  23  34 SE20G33   30.12F
6HR MIN TEMP:  48; 6HR MAX TEMP:  52;

EAU CLAIRE WI  CLOUDY    48  31  51 E14       29.91R
6HR MIN TEMP:  39; 6HR MAX TEMP:  49; 6HR PCP: TRACE;

LA CROSSE WI   CLOUDY    53  27  36 SE24G30   29.89F
6HR MIN TEMP:  53; 6HR MAX TEMP:  55;

$$

  *****  SOME NATIONAL WEATHER *****

CITY           SKY/WX    TMP DP  RH WIND       PRES   REMARKS
LA GUARDIA NY  CLEAR     45  15  30 N10       30.46R
6HR MIN TEMP:  43; 6HR MAX TEMP:  47;

RALEIGH NC     PTCLDY    47  26  44 NE6       30.39R
6HR MIN TEMP:  47; 6HR MAX TEMP:  54;

ATLANTA GA     PTCLDY    57  27  31 E13       30.24R
6HR MIN TEMP:  56; 6HR MAX TEMP:  61;

NEW ORLEANS LA PTCLDY    60  36  40 E6        30.11F
6HR MIN TEMP:  59; 6HR MAX TEMP:  63;

OKLAHOMA CITY  MOSUNNY   66  31  27 S14       29.91R
6HR MIN TEMP:  64; 6HR MAX TEMP:  70;

ALBUQUERQUE NM CLOUDY    71   7   8 NW14G24   29.80R
6HR MIN TEMP:  64; 6HR MAX TEMP:  73;

SALT LAKE CITY MOSUNNY   57   7  13 N3        29.99S
6HR MIN TEMP:  53; 6HR MAX TEMP:  57;

LOS ANGELES CA MOSUNNY   62  52  69 W10       29.81F
6HR MIN TEMP:  62; 6HR MAX TEMP:  66;

BOISE ID       SUNNY     60  19  20 NW13      29.98F



USA.gov is the U.S. government's official web portal to all federal, state and local government web resources and services.